Year,Month,Day,Hour,Minute,Value (Times are PST for temperature in C)
2008,03,28,00,00,4.00
2008,03,28,00,01,4.00
2008,03,28,00,02,4.00
2008,03,28,00,03,4.00
2008,03,28,00,04,4.00
2008,03,28,00,05,3.90
2008,03,28,00,06,3.90
2008,03,28,00,07,3.90
2008,03,28,00,08,3.90
2008,03,28,00,09,3.90
2008,03,28,00,10,3.90
2008,03,28,00,11,3.90
2008,03,28,00,12,3.90
2008,03,28,00,13,3.90
2008,03,28,00,14,3.90
2008,03,28,00,15,3.90
2008,03,28,00,16,3.90
2008,03,28,00,17,3.90
2008,03,28,00,18,3.90
2008,03,28,00,19,3.90
2008,03,28,00,20,3.90
2008,03,28,00,21,3.90
2008,03,28,00,22,3.90
2008,03,28,00,23,3.90
2008,03,28,00,24,3.90
2008,03,28,00,25,3.90
2008,03,28,00,26,3.90
2008,03,28,00,27,3.90
2008,03,28,00,28,3.90
2008,03,28,00,29,3.90
2008,03,28,00,30,3.90
2008,03,28,00,31,4.00
2008,03,28,00,32,4.00
2008,03,28,00,33,4.00
2008,03,28,00,34,4.00
2008,03,28,00,35,4.00
2008,03,28,00,36,4.00
2008,03,28,00,37,4.00
2008,03,28,00,38,4.00
2008,03,28,00,39,4.00
2008,03,28,00,40,4.10
2008,03,28,00,41,4.10
2008,03,28,00,42,4.00
2008,03,28,00,43,4.00
2008,03,28,00,44,4.00
2008,03,28,00,45,4.00
2008,03,28,00,46,3.90
2008,03,28,00,47,3.90
2008,03,28,00,48,3.90
2008,03,28,00,49,3.90
2008,03,28,00,50,3.90
2008,03,28,00,51,3.90
2008,03,28,00,52,3.90
2008,03,28,00,53,3.90
2008,03,28,00,54,3.90
2008,03,28,00,55,4.00
2008,03,28,00,56,4.00
2008,03,28,00,57,4.00
2008,03,28,00,58,4.00
2008,03,28,00,59,4.00
2008,03,28,01,00,4.10
2008,03,28,01,01,4.10
2008,03,28,01,02,4.10
2008,03,28,01,03,4.10
2008,03,28,01,04,4.10
2008,03,28,01,05,4.10
2008,03,28,01,06,4.10
2008,03,28,01,07,4.10
2008,03,28,01,08,4.20
2008,03,28,01,09,4.20
2008,03,28,01,10,4.20
2008,03,28,01,11,4.10
2008,03,28,01,12,4.10
2008,03,28,01,13,4.10
2008,03,28,01,14,4.10
2008,03,28,01,15,4.10
2008,03,28,01,16,4.10
2008,03,28,01,17,4.10
2008,03,28,01,18,4.10
2008,03,28,01,19,4.10
2008,03,28,01,20,4.10
2008,03,28,01,21,4.10
2008,03,28,01,22,4.10
2008,03,28,01,23,4.10
2008,03,28,01,24,4.20
2008,03,28,01,25,4.20
2008,03,28,01,26,4.20
2008,03,28,01,27,4.20
2008,03,28,01,28,4.20
2008,03,28,01,29,4.20
2008,03,28,01,30,4.20
2008,03,28,01,31,4.20
2008,03,28,01,32,4.20
2008,03,28,01,33,4.20
2008,03,28,01,34,4.20
2008,03,28,01,35,4.20
2008,03,28,01,36,4.20
2008,03,28,01,37,4.20
2008,03,28,01,38,4.20
2008,03,28,01,39,4.20
2008,03,28,01,40,4.20
2008,03,28,01,41,4.20
2008,03,28,01,42,4.20
2008,03,28,01,43,4.20
2008,03,28,01,44,4.20
2008,03,28,01,45,4.20
2008,03,28,01,46,4.20
2008,03,28,01,47,4.20
2008,03,28,01,48,4.20
2008,03,28,01,49,4.20
2008,03,28,01,50,4.20
2008,03,28,01,51,4.20
2008,03,28,01,52,4.20
2008,03,28,01,53,4.20
2008,03,28,01,54,4.20
2008,03,28,01,55,4.30
2008,03,28,01,56,4.30
2008,03,28,01,57,4.30
2008,03,28,01,58,4.30
2008,03,28,01,59,4.30
2008,03,28,02,00,4.30
2008,03,28,02,01,4.30
2008,03,28,02,02,4.30
2008,03,28,02,03,4.30
2008,03,28,02,04,4.30
2008,03,28,02,05,4.30
2008,03,28,02,06,4.30
2008,03,28,02,07,4.30
2008,03,28,02,08,4.30
2008,03,28,02,09,4.30
2008,03,28,02,10,4.30
2008,03,28,02,11,4.30
2008,03,28,02,12,4.40
2008,03,28,02,13,4.40
2008,03,28,02,14,4.40
2008,03,28,02,15,4.40
2008,03,28,02,16,4.30
2008,03,28,02,17,4.30
2008,03,28,02,18,4.30
2008,03,28,02,19,4.30
2008,03,28,02,20,4.30
2008,03,28,02,21,4.30
2008,03,28,02,22,4.20
2008,03,28,02,23,4.20
2008,03,28,02,24,4.20
2008,03,28,02,25,4.20
2008,03,28,02,26,4.20
2008,03,28,02,27,4.20
2008,03,28,02,28,4.20
2008,03,28,02,29,4.20
2008,03,28,02,30,4.20
2008,03,28,02,31,4.20
2008,03,28,02,32,4.20
2008,03,28,02,33,4.20
2008,03,28,02,34,4.20
2008,03,28,02,35,4.20
2008,03,28,02,36,4.30
2008,03,28,02,37,4.30
2008,03,28,02,38,4.30
2008,03,28,02,39,4.30
2008,03,28,02,40,4.30
2008,03,28,02,41,4.30
2008,03,28,02,42,4.30
2008,03,28,02,43,4.30
2008,03,28,02,44,4.30
2008,03,28,02,45,4.20
2008,03,28,02,46,4.20
2008,03,28,02,47,4.20
2008,03,28,02,48,4.20
2008,03,28,02,49,4.20
2008,03,28,02,50,4.20
2008,03,28,02,51,4.10
2008,03,28,02,52,4.10
2008,03,28,02,53,4.10
2008,03,28,02,54,4.10
2008,03,28,02,55,4.10
2008,03,28,02,56,4.10
2008,03,28,02,57,4.10
2008,03,28,02,58,4.10
2008,03,28,02,59,4.10
2008,03,28,03,00,4.10
2008,03,28,03,01,4.10
2008,03,28,03,02,4.10
2008,03,28,03,03,4.10
2008,03,28,03,04,4.10
2008,03,28,03,05,4.10
2008,03,28,03,06,4.10
2008,03,28,03,07,4.10
2008,03,28,03,08,4.10
2008,03,28,03,09,4.10
2008,03,28,03,10,4.10
2008,03,28,03,11,4.10
2008,03,28,03,12,4.10
2008,03,28,03,13,4.10
2008,03,28,03,14,4.10
2008,03,28,03,15,4.10
2008,03,28,03,16,4.10
2008,03,28,03,17,4.10
2008,03,28,03,18,4.10
2008,03,28,03,19,4.10
2008,03,28,03,20,4.10
2008,03,28,03,21,4.10
2008,03,28,03,22,4.10
2008,03,28,03,23,4.10
2008,03,28,03,24,4.10
2008,03,28,03,25,4.10
2008,03,28,03,26,4.10
2008,03,28,03,27,4.10
2008,03,28,03,28,4.10
2008,03,28,03,29,4.10
2008,03,28,03,30,4.10
2008,03,28,03,31,4.10
2008,03,28,03,32,4.10
2008,03,28,03,33,4.10
2008,03,28,03,34,4.10
2008,03,28,03,35,4.10
2008,03,28,03,36,4.10
2008,03,28,03,37,4.10
2008,03,28,03,38,4.10
2008,03,28,03,39,4.10
2008,03,28,03,40,4.10
2008,03,28,03,41,4.00
2008,03,28,03,42,4.00
2008,03,28,03,43,4.00
2008,03,28,03,44,4.00
2008,03,28,03,45,4.00
2008,03,28,03,46,4.10
2008,03,28,03,47,4.10
2008,03,28,03,48,4.10
2008,03,28,03,49,4.10
2008,03,28,03,50,4.10
2008,03,28,03,51,4.10
2008,03,28,03,52,4.10
2008,03,28,03,53,4.10
2008,03,28,03,54,4.10
2008,03,28,03,55,4.10
2008,03,28,03,56,4.10
2008,03,28,03,57,4.10
2008,03,28,03,58,4.10
2008,03,28,03,59,4.10
2008,03,28,04,00,4.10
2008,03,28,04,01,4.10
2008,03,28,04,02,4.10
2008,03,28,04,03,4.10
2008,03,28,04,04,4.10
2008,03,28,04,05,4.10
2008,03,28,04,06,4.10
2008,03,28,04,07,4.10
2008,03,28,04,08,4.10
2008,03,28,04,09,4.10
2008,03,28,04,10,4.10
2008,03,28,04,11,4.10
2008,03,28,04,12,4.10
2008,03,28,04,13,4.10
2008,03,28,04,14,4.10
2008,03,28,04,15,4.10
2008,03,28,04,16,4.10
2008,03,28,04,17,4.10
2008,03,28,04,18,4.10
2008,03,28,04,19,4.10
2008,03,28,04,20,4.10
2008,03,28,04,21,4.10
2008,03,28,04,22,4.20
2008,03,28,04,23,4.20
2008,03,28,04,24,4.20
2008,03,28,04,25,4.20
2008,03,28,04,26,4.20
2008,03,28,04,27,4.20
2008,03,28,04,28,4.20
2008,03,28,04,29,4.20
2008,03,28,04,30,4.20
2008,03,28,04,31,4.10
2008,03,28,04,32,4.10
2008,03,28,04,33,4.10
2008,03,28,04,34,4.10
2008,03,28,04,35,4.10
2008,03,28,04,36,4.10
2008,03,28,04,37,4.10
2008,03,28,04,38,4.10
2008,03,28,04,39,4.10
2008,03,28,04,40,4.10
2008,03,28,04,41,4.10
2008,03,28,04,42,4.10
2008,03,28,04,43,4.10
2008,03,28,04,44,4.10
2008,03,28,04,45,4.10
2008,03,28,04,46,4.10
2008,03,28,04,47,4.10
2008,03,28,04,48,4.10
2008,03,28,04,49,4.10
2008,03,28,04,50,4.10
2008,03,28,04,51,4.10
2008,03,28,04,52,4.10
2008,03,28,04,53,4.10
2008,03,28,04,54,4.10
2008,03,28,04,55,4.10
2008,03,28,04,56,4.00
2008,03,28,04,57,4.00
2008,03,28,04,58,4.00
2008,03,28,04,59,4.10
2008,03,28,05,00,4.10
2008,03,28,05,01,4.10
2008,03,28,05,02,4.10
2008,03,28,05,03,4.10
2008,03,28,05,04,4.10
2008,03,28,05,20,3.90
2008,03,28,05,21,3.90
2008,03,28,05,22,3.80
2008,03,28,05,23,3.80
2008,03,28,05,24,3.80
2008,03,28,05,25,3.80
2008,03,28,05,26,3.80
2008,03,28,05,27,3.70
2008,03,28,05,28,3.70
2008,03,28,05,29,3.60
2008,03,28,05,30,3.60
2008,03,28,05,31,3.50
2008,03,28,05,32,3.40
2008,03,28,05,33,3.30
2008,03,28,05,34,3.20
2008,03,28,05,35,3.10
2008,03,28,05,36,3.00
2008,03,28,05,37,3.00
2008,03,28,05,38,2.90
2008,03,28,05,39,2.90
2008,03,28,05,40,2.90
2008,03,28,05,41,2.80
2008,03,28,05,42,2.80
2008,03,28,05,43,2.70
2008,03,28,05,44,2.70
2008,03,28,05,45,2.60
2008,03,28,05,46,2.60
2008,03,28,05,47,2.60
2008,03,28,05,48,2.60
2008,03,28,05,49,2.50
2008,03,28,05,50,2.50
2008,03,28,05,51,2.40
2008,03,28,05,52,2.40
2008,03,28,05,53,2.40
2008,03,28,05,54,2.30
2008,03,28,05,55,2.20
2008,03,28,05,56,2.10
2008,03,28,05,57,2.00
2008,03,28,05,58,2.00
2008,03,28,05,59,1.90
2008,03,28,06,00,2.00
2008,03,28,06,01,2.00
2008,03,28,06,02,1.90
2008,03,28,06,03,1.90
2008,03,28,06,04,1.90
2008,03,28,06,05,1.90
2008,03,28,06,06,1.90
2008,03,28,06,07,1.90
2008,03,28,06,08,1.90
2008,03,28,06,09,1.90
2008,03,28,06,10,1.90
2008,03,28,06,11,1.90
2008,03,28,06,12,1.90
2008,03,28,06,13,1.90
2008,03,28,06,14,1.80
2008,03,28,06,15,1.80
2008,03,28,06,16,1.80
2008,03,28,06,17,1.80
2008,03,28,06,18,1.80
2008,03,28,06,19,1.80
2008,03,28,06,20,1.90
2008,03,28,06,21,1.90
2008,03,28,06,22,1.90
2008,03,28,06,23,1.90
2008,03,28,06,24,2.00
2008,03,28,06,25,2.00
2008,03,28,06,26,2.00
2008,03,28,06,27,2.00
2008,03,28,06,28,2.00
2008,03,28,06,29,1.90
2008,03,28,06,30,1.90
2008,03,28,06,31,1.90
2008,03,28,06,32,1.90
2008,03,28,06,33,1.90
2008,03,28,06,34,1.90
2008,03,28,06,35,1.80
2008,03,28,06,36,1.80
2008,03,28,06,37,1.80
2008,03,28,06,38,1.80
2008,03,28,06,39,1.70
2008,03,28,06,40,1.70
2008,03,28,06,41,1.70
2008,03,28,06,42,1.70
2008,03,28,06,43,1.70
2008,03,28,06,44,1.70
2008,03,28,06,45,1.60
2008,03,28,06,46,1.60
2008,03,28,06,47,1.60
2008,03,28,06,48,1.60
2008,03,28,06,49,1.50
2008,03,28,06,50,1.50
2008,03,28,06,51,1.50
2008,03,28,06,52,1.40
2008,03,28,06,53,1.40
2008,03,28,06,54,1.40
2008,03,28,06,55,1.40
2008,03,28,06,56,1.40
2008,03,28,06,57,1.50
2008,03,28,06,58,1.50
2008,03,28,06,59,1.40
2008,03,28,07,00,1.40
2008,03,28,07,01,1.40
2008,03,28,07,02,1.50
2008,03,28,07,03,1.50
2008,03,28,07,04,1.50
2008,03,28,07,05,1.50
2008,03,28,07,06,1.50
2008,03,28,07,07,1.50
2008,03,28,07,08,1.40
2008,03,28,07,09,1.40
2008,03,28,07,10,1.40
2008,03,28,07,11,1.40
2008,03,28,07,12,1.40
2008,03,28,07,13,1.40
2008,03,28,07,14,1.40
2008,03,28,07,15,1.40
2008,03,28,07,16,1.40
2008,03,28,07,17,1.40
2008,03,28,07,18,1.40
2008,03,28,07,19,1.40
2008,03,28,07,20,1.40
2008,03,28,07,21,1.40
2008,03,28,07,22,1.40
2008,03,28,07,23,1.30
2008,03,28,07,24,1.30
2008,03,28,07,25,1.40
2008,03,28,07,26,1.40
2008,03,28,07,27,1.40
2008,03,28,07,28,1.40
2008,03,28,07,29,1.40
2008,03,28,07,30,1.40
2008,03,28,07,31,1.40
2008,03,28,07,32,1.40
2008,03,28,07,33,1.40
2008,03,28,07,34,1.40
2008,03,28,07,35,1.40
2008,03,28,07,36,1.40
2008,03,28,07,37,1.40
2008,03,28,07,38,1.40
2008,03,28,07,39,1.40
2008,03,28,07,40,1.40
2008,03,28,07,41,1.30
2008,03,28,07,42,1.30
2008,03,28,07,43,1.30
2008,03,28,07,44,1.30
2008,03,28,07,45,1.30
2008,03,28,07,46,1.30
2008,03,28,07,47,1.30
2008,03,28,07,48,1.30
2008,03,28,07,49,1.30
2008,03,28,07,50,1.30
2008,03,28,07,51,1.30
2008,03,28,07,52,1.30
2008,03,28,07,53,1.30
2008,03,28,07,54,1.30
2008,03,28,07,55,1.30
2008,03,28,07,56,1.30
2008,03,28,07,57,1.30
2008,03,28,07,58,1.30
2008,03,28,07,59,1.30
2008,03,28,08,00,1.30
2008,03,28,08,01,1.30
2008,03,28,08,02,1.30
2008,03,28,08,03,1.30
2008,03,28,08,04,1.30
2008,03,28,08,05,1.30
2008,03,28,08,06,1.30
2008,03,28,08,07,1.30
2008,03,28,08,08,1.40
2008,03,28,08,09,1.40
2008,03,28,08,10,1.40
2008,03,28,08,11,1.40
2008,03,28,08,12,1.40
2008,03,28,08,13,1.40
2008,03,28,08,14,1.40
2008,03,28,08,15,1.40
2008,03,28,08,16,1.30
2008,03,28,08,17,1.40
2008,03,28,08,18,1.40
2008,03,28,08,19,1.40
2008,03,28,08,20,1.40
2008,03,28,08,21,1.40
2008,03,28,08,22,1.40
2008,03,28,08,23,1.40
2008,03,28,08,24,1.40
2008,03,28,08,25,1.40
2008,03,28,08,26,1.40
2008,03,28,08,27,1.40
2008,03,28,08,28,1.30
2008,03,28,08,29,1.40
2008,03,28,08,30,1.40
2008,03,28,08,31,1.40
2008,03,28,08,32,1.40
2008,03,28,08,33,1.40
2008,03,28,08,34,1.40
2008,03,28,08,35,1.40
2008,03,28,08,36,1.40
2008,03,28,08,37,1.40
2008,03,28,08,38,1.40
2008,03,28,08,39,1.40
2008,03,28,08,40,1.40
2008,03,28,08,41,1.40
2008,03,28,08,42,1.30
2008,03,28,08,43,1.30
2008,03,28,08,44,1.30
2008,03,28,08,45,1.30
2008,03,28,08,46,1.30
2008,03,28,08,47,1.30
2008,03,28,08,48,1.30
2008,03,28,08,49,1.30
2008,03,28,08,50,1.30
2008,03,28,08,51,1.30
2008,03,28,08,52,1.30
2008,03,28,08,53,1.30
2008,03,28,08,54,1.30
2008,03,28,08,55,1.30
2008,03,28,08,56,1.30
2008,03,28,08,57,1.30
2008,03,28,08,58,1.30
2008,03,28,08,59,1.30
2008,03,28,09,00,1.30
2008,03,28,09,01,1.30
2008,03,28,09,02,1.30
2008,03,28,09,03,1.30
2008,03,28,09,04,1.30
2008,03,28,09,05,1.30
2008,03,28,09,06,1.30
2008,03,28,09,07,1.20
2008,03,28,09,08,1.20
2008,03,28,09,09,1.20
2008,03,28,09,10,1.20
2008,03,28,09,11,1.20
2008,03,28,09,12,1.20
2008,03,28,09,13,1.20
2008,03,28,09,14,1.20
2008,03,28,09,15,1.20
2008,03,28,09,16,1.20
2008,03,28,09,17,1.20
2008,03,28,09,18,1.20
2008,03,28,09,19,1.20
2008,03,28,09,20,1.20
2008,03,28,09,21,1.20
2008,03,28,09,22,1.20
2008,03,28,09,23,1.20
2008,03,28,09,24,1.20
2008,03,28,09,25,1.20
2008,03,28,09,26,1.20
2008,03,28,09,27,1.20
2008,03,28,09,28,1.20
2008,03,28,09,29,1.20
2008,03,28,09,30,1.20
2008,03,28,09,31,1.20
2008,03,28,09,32,1.20
2008,03,28,09,33,1.20
2008,03,28,09,34,1.20
2008,03,28,09,35,1.20
2008,03,28,09,36,1.20
2008,03,28,09,37,1.20
2008,03,28,09,38,1.20
2008,03,28,09,39,1.20
2008,03,28,09,40,1.20
2008,03,28,09,41,1.20
2008,03,28,09,42,1.20
2008,03,28,09,43,1.30
2008,03,28,09,44,1.30
2008,03,28,09,45,1.30
2008,03,28,09,46,1.30
2008,03,28,09,47,1.30
2008,03,28,09,48,1.30
2008,03,28,09,49,1.30
2008,03,28,09,50,1.30
2008,03,28,09,51,1.30
2008,03,28,09,52,1.30
2008,03,28,09,53,1.30
2008,03,28,09,54,1.30
2008,03,28,09,55,1.30
2008,03,28,09,56,1.30
2008,03,28,09,57,1.30
2008,03,28,09,58,1.30
2008,03,28,09,59,1.30
2008,03,28,10,00,1.30
2008,03,28,10,01,1.30
2008,03,28,10,02,1.30
2008,03,28,10,03,1.30
2008,03,28,10,04,1.30
2008,03,28,10,05,1.30
2008,03,28,10,06,1.30
2008,03,28,10,07,1.30
2008,03,28,10,08,1.30
2008,03,28,10,09,1.30
2008,03,28,10,10,1.30
2008,03,28,10,11,1.30
2008,03,28,10,12,1.30
2008,03,28,10,13,1.30
2008,03,28,10,14,1.30
2008,03,28,10,15,1.30
2008,03,28,10,16,1.30
2008,03,28,10,17,1.30
2008,03,28,10,18,1.30
2008,03,28,10,19,1.30
2008,03,28,10,20,1.30
2008,03,28,10,21,1.30
2008,03,28,10,22,1.30
2008,03,28,10,23,1.30
2008,03,28,10,24,1.30
2008,03,28,10,25,1.30
2008,03,28,10,26,1.30
2008,03,28,10,27,1.30
2008,03,28,10,28,1.30
2008,03,28,10,29,1.30
2008,03,28,10,30,1.30
2008,03,28,10,31,1.30
2008,03,28,10,32,1.30
2008,03,28,10,33,1.30
2008,03,28,10,34,1.30
2008,03,28,10,35,1.30
2008,03,28,10,36,1.30
2008,03,28,10,37,1.30
2008,03,28,10,38,1.30
2008,03,28,10,39,1.30
2008,03,28,10,40,1.30
2008,03,28,10,41,1.30
2008,03,28,10,42,1.20
2008,03,28,10,43,1.20
2008,03,28,10,44,1.20
2008,03,28,10,45,1.20
2008,03,28,10,46,1.20
2008,03,28,10,47,1.20
2008,03,28,10,48,1.20
2008,03,28,10,49,1.20
2008,03,28,10,50,1.20
2008,03,28,10,51,1.20
2008,03,28,10,52,1.20
2008,03,28,10,53,1.20
2008,03,28,10,54,1.20
2008,03,28,10,55,1.20
2008,03,28,10,56,1.20
2008,03,28,10,57,1.20
2008,03,28,10,58,1.20
2008,03,28,10,59,1.20
2008,03,28,11,00,1.20
2008,03,28,11,01,1.20
2008,03,28,11,02,1.20
2008,03,28,11,03,1.20
2008,03,28,11,04,1.20
2008,03,28,11,05,1.20
2008,03,28,11,06,1.20
2008,03,28,11,07,1.20
2008,03,28,11,08,1.20
2008,03,28,11,09,1.20
2008,03,28,11,10,1.20
2008,03,28,11,11,1.20
2008,03,28,11,12,1.20
2008,03,28,11,13,1.20
2008,03,28,11,14,1.30
2008,03,28,11,15,1.30
2008,03,28,11,16,1.30
2008,03,28,11,17,1.30
2008,03,28,11,18,1.30
2008,03,28,11,19,1.30
2008,03,28,11,20,1.30
2008,03,28,11,21,1.30
2008,03,28,11,22,1.30
2008,03,28,11,23,1.30
2008,03,28,11,24,1.30
2008,03,28,11,25,1.30
2008,03,28,11,26,1.40
2008,03,28,11,27,1.40
2008,03,28,11,28,1.40
2008,03,28,11,29,1.40
2008,03,28,11,30,1.40
2008,03,28,11,31,1.40
2008,03,28,11,32,1.40
2008,03,28,11,33,1.40
2008,03,28,11,34,1.40
2008,03,28,11,35,1.40
2008,03,28,11,36,1.40
2008,03,28,11,37,1.40
2008,03,28,11,38,1.40
2008,03,28,11,39,1.40
2008,03,28,11,40,1.40
2008,03,28,11,41,1.40
2008,03,28,11,42,1.40
2008,03,28,11,43,1.40
2008,03,28,11,44,1.30
2008,03,28,11,45,1.30
2008,03,28,11,46,1.30
2008,03,28,11,47,1.30
2008,03,28,11,48,1.30
2008,03,28,11,49,1.30
2008,03,28,11,50,1.30
2008,03,28,11,51,1.30
2008,03,28,11,52,1.30
2008,03,28,11,53,1.30
2008,03,28,11,54,1.30
2008,03,28,11,55,1.30
2008,03,28,11,56,1.30
2008,03,28,11,57,1.30
2008,03,28,11,58,1.30
2008,03,28,11,59,1.30
2008,03,28,12,00,1.30
2008,03,28,12,01,1.30
2008,03,28,12,02,1.30
2008,03,28,12,03,1.30
2008,03,28,12,04,1.30
2008,03,28,12,05,1.30
2008,03,28,12,06,1.30
2008,03,28,12,07,1.30
2008,03,28,12,08,1.30
2008,03,28,12,09,1.30
2008,03,28,12,10,1.30
2008,03,28,12,11,1.30
2008,03,28,12,12,1.30
2008,03,28,12,13,1.20
2008,03,28,12,14,1.20
2008,03,28,12,15,1.20
2008,03,28,12,16,1.20
2008,03,28,12,17,1.20
2008,03,28,12,18,1.10
2008,03,28,12,19,1.10
2008,03,28,12,20,1.10
2008,03,28,12,21,1.00
2008,03,28,12,22,1.00
2008,03,28,12,23,0.90
2008,03,28,12,24,0.90
2008,03,28,12,25,0.90
2008,03,28,12,26,0.90
2008,03,28,12,27,0.80
2008,03,28,12,28,0.80
2008,03,28,12,29,0.80
2008,03,28,12,30,0.80
2008,03,28,12,31,0.80
2008,03,28,12,32,0.80
2008,03,28,12,33,0.70
2008,03,28,12,34,0.70
2008,03,28,12,35,0.70
2008,03,28,12,36,0.60
2008,03,28,12,37,0.60
2008,03,28,12,38,0.60
2008,03,28,12,39,0.60
2008,03,28,12,40,0.60
2008,03,28,12,41,0.50
2008,03,28,12,42,0.50
2008,03,28,12,43,0.40
2008,03,28,12,44,0.40
2008,03,28,12,45,0.40
2008,03,28,12,46,0.40
2008,03,28,12,47,0.40
2008,03,28,12,48,0.40
2008,03,28,12,49,0.40
2008,03,28,12,50,0.40
2008,03,28,12,51,0.40
2008,03,28,12,52,0.40
2008,03,28,12,53,0.40
2008,03,28,12,54,0.40
2008,03,28,12,55,0.40
2008,03,28,12,56,0.40
2008,03,28,12,57,0.40
2008,03,28,12,58,0.50
2008,03,28,12,59,0.40
2008,03,28,13,00,0.40
2008,03,28,13,01,0.40
2008,03,28,13,02,0.40
2008,03,28,13,03,0.40
2008,03,28,13,04,0.40
2008,03,28,13,05,0.40
2008,03,28,13,06,0.40
2008,03,28,13,07,0.40
2008,03,28,13,08,0.40
2008,03,28,13,09,0.40
2008,03,28,13,10,0.40
2008,03,28,13,11,0.40
2008,03,28,13,12,0.40
2008,03,28,13,13,0.40
2008,03,28,13,14,0.40
2008,03,28,13,15,0.40
2008,03,28,13,16,0.40
2008,03,28,13,17,0.40
2008,03,28,13,18,0.40
2008,03,28,13,19,0.40
2008,03,28,13,20,0.40
2008,03,28,13,21,0.40
2008,03,28,13,22,0.50
2008,03,28,13,23,0.50
2008,03,28,13,24,0.50
2008,03,28,13,25,0.50
2008,03,28,13,26,0.50
2008,03,28,13,27,0.50
2008,03,28,13,28,0.40
2008,03,28,13,29,0.40
2008,03,28,13,30,0.40
2008,03,28,13,31,0.40
2008,03,28,13,32,0.40
2008,03,28,13,33,0.40
2008,03,28,13,34,0.40
2008,03,28,13,35,0.40
2008,03,28,13,36,0.40
2008,03,28,13,37,0.40
2008,03,28,13,38,0.40
2008,03,28,13,39,0.40
2008,03,28,13,40,0.40
2008,03,28,13,41,0.40
2008,03,28,13,42,0.40
2008,03,28,13,43,0.40
2008,03,28,13,44,0.40
2008,03,28,13,45,0.40
2008,03,28,13,46,0.40
2008,03,28,13,47,0.40
2008,03,28,13,48,0.40
2008,03,28,13,49,0.40
2008,03,28,13,50,0.40
2008,03,28,13,51,0.40
2008,03,28,13,52,0.40
2008,03,28,13,53,0.40
2008,03,28,13,54,0.40
2008,03,28,13,55,0.40
2008,03,28,13,56,0.40
2008,03,28,13,57,0.40
2008,03,28,13,58,0.40
2008,03,28,13,59,0.40
2008,03,28,14,00,0.40
2008,03,28,14,01,0.40
2008,03,28,14,02,0.40
2008,03,28,14,03,0.40
2008,03,28,14,04,0.30
2008,03,28,14,05,0.30
2008,03,28,14,06,0.30
2008,03,28,14,07,0.30
2008,03,28,14,08,0.30
2008,03,28,14,09,0.30
2008,03,28,14,10,0.30
2008,03,28,14,11,0.30
2008,03,28,14,12,0.30
2008,03,28,14,13,0.30
2008,03,28,14,14,0.30
2008,03,28,14,15,0.30
2008,03,28,14,16,0.40
2008,03,28,14,17,0.40
2008,03,28,14,18,0.40
2008,03,28,14,19,0.40
2008,03,28,14,20,0.40
2008,03,28,14,21,0.40
2008,03,28,14,22,0.40
2008,03,28,14,23,0.40
2008,03,28,14,24,0.40
2008,03,28,14,25,0.40
2008,03,28,14,26,0.40
2008,03,28,14,27,0.40
2008,03,28,14,28,0.40
2008,03,28,14,29,0.40
2008,03,28,14,30,0.40
2008,03,28,14,31,0.40
2008,03,28,14,32,0.40
2008,03,28,14,33,0.40
2008,03,28,14,34,0.40
2008,03,28,14,35,0.40
2008,03,28,14,36,0.40
2008,03,28,14,37,0.40
2008,03,28,14,38,0.40
2008,03,28,14,39,0.40
2008,03,28,14,40,0.40
2008,03,28,14,41,0.40
2008,03,28,14,42,0.40
2008,03,28,14,43,0.40
2008,03,28,14,44,0.40
2008,03,28,14,45,0.40
2008,03,28,14,46,0.40
2008,03,28,14,47,0.40
2008,03,28,14,48,0.40
2008,03,28,14,49,0.40
2008,03,28,14,50,0.40
2008,03,28,14,51,0.40
2008,03,28,14,52,0.40
2008,03,28,14,53,0.40
2008,03,28,14,54,0.40
2008,03,28,14,55,0.40
2008,03,28,14,56,0.40
2008,03,28,14,57,0.40
2008,03,28,14,58,0.40
2008,03,28,14,59,0.40
2008,03,28,15,00,0.40
2008,03,28,15,01,0.40
2008,03,28,15,02,0.40
2008,03,28,15,03,0.40
2008,03,28,15,04,0.40
2008,03,28,15,05,0.40
2008,03,28,15,06,0.40
2008,03,28,15,07,0.40
2008,03,28,15,08,0.40
2008,03,28,15,09,0.40
2008,03,28,15,10,0.40
2008,03,28,15,11,0.40
2008,03,28,15,12,0.40
2008,03,28,15,13,0.40
2008,03,28,15,14,0.40
2008,03,28,15,15,0.40
2008,03,28,15,16,0.40
2008,03,28,15,17,0.40
2008,03,28,15,18,0.40
2008,03,28,15,19,0.40
2008,03,28,15,20,0.40
2008,03,28,15,21,0.40
2008,03,28,15,22,0.40
2008,03,28,15,23,0.40
2008,03,28,15,24,0.40
2008,03,28,15,25,0.40
2008,03,28,15,26,0.40
2008,03,28,15,27,0.40
2008,03,28,15,28,0.40
2008,03,28,15,29,0.50
2008,03,28,15,30,0.50
2008,03,28,15,31,0.50
2008,03,28,15,32,0.50
2008,03,28,15,33,0.50
2008,03,28,15,34,0.50
2008,03,28,15,35,0.50
2008,03,28,15,36,0.50
2008,03,28,15,37,0.50
2008,03,28,15,38,0.50
2008,03,28,15,39,0.50
2008,03,28,15,40,0.50
2008,03,28,15,41,0.50
2008,03,28,15,42,0.50
2008,03,28,15,43,0.50
2008,03,28,15,44,0.50
2008,03,28,15,45,0.50
2008,03,28,15,46,0.50
2008,03,28,15,47,0.50
2008,03,28,15,48,0.50
2008,03,28,15,49,0.50
2008,03,28,15,50,0.50
2008,03,28,15,51,0.50
2008,03,28,15,52,0.50
2008,03,28,15,53,0.50
2008,03,28,15,54,0.50
2008,03,28,15,55,0.40
2008,03,28,15,56,0.40
2008,03,28,15,57,0.40
2008,03,28,15,58,0.40
2008,03,28,15,59,0.40
2008,03,28,16,00,0.40
2008,03,28,16,01,0.40
2008,03,28,16,02,0.40
2008,03,28,16,03,0.40
2008,03,28,16,04,0.40
2008,03,28,16,05,0.40
2008,03,28,16,06,0.40
2008,03,28,16,07,0.40
2008,03,28,16,08,0.40
2008,03,28,16,09,0.40
2008,03,28,16,10,0.40
2008,03,28,16,11,0.40
2008,03,28,16,12,0.40
2008,03,28,16,13,0.40
2008,03,28,16,14,0.40
2008,03,28,16,15,0.40
2008,03,28,16,16,0.40
2008,03,28,16,17,0.40
2008,03,28,16,18,0.40
2008,03,28,16,19,0.40
2008,03,28,16,20,0.40
2008,03,28,16,21,0.40
2008,03,28,16,22,0.40
2008,03,28,16,23,0.40
2008,03,28,16,24,0.40
2008,03,28,16,25,0.40
2008,03,28,16,26,0.40
2008,03,28,16,27,0.40
2008,03,28,16,28,0.40
2008,03,28,16,29,0.40
2008,03,28,16,30,0.40
2008,03,28,16,31,0.40
2008,03,28,16,32,0.40
2008,03,28,16,33,0.40
2008,03,28,16,34,0.40
2008,03,28,16,35,0.40
2008,03,28,16,36,0.40
2008,03,28,16,37,0.40
2008,03,28,16,38,0.40
2008,03,28,16,39,0.40
2008,03,28,16,40,0.40
2008,03,28,16,41,0.40
2008,03,28,16,42,0.40
2008,03,28,16,43,0.40
2008,03,28,16,44,0.40
2008,03,28,16,45,0.40
2008,03,28,16,46,0.40
2008,03,28,16,47,0.40
2008,03,28,16,48,0.40
2008,03,28,16,49,0.40
2008,03,28,16,50,0.40
2008,03,28,16,51,0.40
2008,03,28,16,52,0.40
2008,03,28,16,53,0.40
2008,03,28,16,54,0.40
2008,03,28,16,55,0.40
2008,03,28,16,56,0.40
2008,03,28,16,57,0.40
2008,03,28,16,58,0.40
2008,03,28,16,59,0.40
2008,03,28,17,00,0.50
2008,03,28,17,01,0.50
2008,03,28,17,02,0.50
2008,03,28,17,03,0.50
2008,03,28,17,04,0.50
2008,03,28,17,05,0.50
2008,03,28,17,06,0.50
2008,03,28,17,07,0.60
2008,03,28,17,08,0.60
2008,03,28,17,09,0.60
2008,03,28,17,10,0.60
2008,03,28,17,11,0.60
2008,03,28,17,12,0.60
2008,03,28,17,13,0.60
2008,03,28,17,14,0.60
2008,03,28,17,15,0.60
2008,03,28,17,16,0.60
2008,03,28,17,17,0.60
2008,03,28,17,18,0.60
2008,03,28,17,19,0.60
2008,03,28,17,20,0.60
2008,03,28,17,21,0.60
2008,03,28,17,22,0.60
2008,03,28,17,23,0.60
2008,03,28,17,24,0.60
2008,03,28,17,25,0.60
2008,03,28,17,26,0.60
2008,03,28,17,27,0.60
2008,03,28,17,28,0.60
2008,03,28,17,29,0.60
2008,03,28,17,30,0.60
2008,03,28,17,31,0.60
2008,03,28,17,32,0.60
2008,03,28,17,33,0.60
2008,03,28,17,34,0.60
2008,03,28,17,35,0.60
2008,03,28,17,36,0.60
2008,03,28,17,37,0.60
2008,03,28,17,38,0.60
2008,03,28,17,39,0.60
2008,03,28,17,40,0.60
2008,03,28,17,41,0.60
2008,03,28,17,42,0.60
2008,03,28,17,43,0.60
2008,03,28,17,44,0.60
2008,03,28,17,45,0.60
2008,03,28,17,46,0.60
2008,03,28,17,47,0.60
2008,03,28,17,48,0.60
2008,03,28,17,49,0.60
2008,03,28,17,50,0.60
2008,03,28,17,51,0.60
2008,03,28,17,52,0.60
2008,03,28,17,53,0.60
2008,03,28,17,54,0.60
2008,03,28,17,55,0.70
2008,03,28,17,56,0.70
2008,03,28,17,57,0.70
2008,03,28,17,58,0.70
2008,03,28,17,59,0.70
2008,03,28,18,00,0.70
2008,03,28,18,01,0.80
2008,03,28,18,02,0.80
2008,03,28,18,03,0.80
2008,03,28,18,04,0.80
2008,03,28,18,05,0.80
2008,03,28,18,06,0.80
2008,03,28,18,07,0.80
2008,03,28,18,08,0.80
2008,03,28,18,09,0.80
2008,03,28,18,10,0.90
2008,03,28,18,11,0.90
2008,03,28,18,12,0.90
2008,03,28,18,13,0.90
2008,03,28,18,14,0.90
2008,03,28,18,15,0.90
2008,03,28,18,16,0.90
2008,03,28,18,17,0.90
2008,03,28,18,18,0.90
2008,03,28,18,19,0.90
2008,03,28,18,20,0.90
2008,03,28,18,21,0.90